TimeCDT,TemperatureF,Dew PointF,Humidity,Sea Level PressureIn,VisibilityMPH,Wind Direction,Wind SpeedMPH,Gust SpeedMPH,PrecipitationIn,Events,Conditions,WindDirDegrees,DateUTC
12:52 AM,71.1,64.0,78,30.00,10.0,South,6.9,-,N/A,,Clear,170,2014-07-22 05:52:00
1:52 AM,68.0,64.0,87,30.01,8.0,SSW,4.6,-,N/A,,Clear,200,2014-07-22 06:52:00
2:52 AM,68.0,64.0,87,30.00,8.0,SSW,5.8,-,N/A,,Clear,200,2014-07-22 07:52:00
3:52 AM,70.0,64.0,81,29.99,9.0,South,9.2,-,N/A,,Clear,190,2014-07-22 08:52:00
4:52 AM,69.1,64.0,84,30.00,9.0,SSW,8.1,-,N/A,,Clear,210,2014-07-22 09:52:00
5:52 AM,68.0,64.0,87,30.01,7.0,SSW,8.1,-,N/A,,Clear,200,2014-07-22 10:52:00
6:52 AM,72.0,64.0,76,29.99,9.0,SSW,12.7,-,N/A,,Clear,200,2014-07-22 11:52:00
7:52 AM,75.0,64.0,69,29.97,9.0,SSW,16.1,-,N/A,,Clear,200,2014-07-22 12:52:00
9:52 AM,80.1,66.0,62,29.95,8.0,SSW,17.3,23.0,N/A,,Clear,210,2014-07-22 14:52:00
10:52 AM,82.9,66.9,58,29.94,8.0,SSW,17.3,26.5,N/A,,Partly Cloudy,210,2014-07-22 15:52:00
11:52 AM,84.0,68.0,58,29.94,9.0,SSW,18.4,26.5,N/A,,Clear,210,2014-07-22 16:52:00
12:52 PM,88.0,70.0,55,29.91,8.0,SSW,16.1,26.5,N/A,,Partly Cloudy,210,2014-07-22 17:52:00
1:52 PM,89.1,71.1,55,29.89,9.0,SSW,15.0,24.2,N/A,,Partly Cloudy,210,2014-07-22 18:52:00
3:52 PM,88.0,73.0,61,29.88,8.0,WSW,9.2,18.4,N/A,,Scattered Clouds,240,2014-07-22 20:52:00
4:52 PM,86.0,73.0,65,29.89,8.0,SW,9.2,-,N/A,,Overcast,230,2014-07-22 21:52:00
5:52 PM,86.0,73.9,67,29.88,8.0,SW,10.4,17.3,N/A,,Clear,220,2014-07-22 22:52:00
6:52 PM,84.9,75.0,72,29.89,8.0,SW,8.1,-,N/A,,Overcast,220,2014-07-22 23:52:00
7:10 PM,86.0,75.0,70,29.93,8.0,SW,9.2,-,N/A,,Mostly Cloudy,220,2014-07-23 00:10:00
7:52 PM,84.9,75.0,72,29.88,8.0,Variable,5.8,-,N/A,,Partly Cloudy,0,2014-07-23 00:52:00
8:52 PM,82.9,75.0,77,29.88,9.0,SSW,8.1,-,N/A,,Scattered Clouds,210,2014-07-23 01:52:00
9:52 PM,82.0,75.0,79,29.88,8.0,Variable,5.8,-,N/A,,Mostly Cloudy,0,2014-07-23 02:52:00
10:21 PM,78.1,73.9,87,29.95,9.0,Calm,Calm,-,0.05,Thunderstorm,Overcast,0,2014-07-23 03:21:00
10:52 PM,75.0,70.0,84,29.92,10.0,NNE,10.4,-,0.05,Thunderstorm,Overcast,20,2014-07-23 03:52:00
10:59 PM,75.0,70.0,84,29.96,10.0,North,5.8,-,N/A,,Overcast,10,2014-07-23 03:59:00
11:52 PM,73.9,64.0,71,29.96,10.0,North,13.8,29.9,N/A,,Overcast,10,2014-07-23 04:52:00